Location: Staunton
(38.1490°N, 79.0720°W)
Time: 00:03:38
(UTC-04:00)

ISS - Pass Details

Date: 25 May 2018
Orbit: 402 x 407 km, 51.6° (Epoch: 24 May)

Event Time Altitude Azimuth Distance (km) Brightness Sun altitude
Rises 22:09:50 0° 285° (WNW) 2,316 1.1 -16.8°
Reaches altitude 10° 22:13:02 10° 320° (NW) 1,457 0.3 -17.2°
Maximum altitude 22:14:19 12° 343° (NNW) 1,356 -0.2 -17.4°
Drops below altitude 10° 22:15:35 10° 6° (N) 1,458 -0.5 -17.6°
Sets 22:18:48 0° 40° (NE) 2,318 0.1 -18.0°
